timestamp,surface_pressure_avg,surface_temp_avg,battery_voltage,lat,long
2021-01-26 00:09:01+00:00,295.3747,1.8,12.65,47.84626,-54.09684
2021-01-26 00:19:01+00:00,289.0898,1.8,12.65,47.84626,-54.09684
2021-01-26 00:29:01+00:00,283.0563,1.8,12.65,47.84626,-54.09684
2021-01-26 00:39:01+00:00,277.0297,1.8,12.65,47.84626,-54.09684
2021-01-26 00:49:01+00:00,271.2864,1.8,12.65,47.84626,-54.09684
2021-01-26 00:59:01+00:00,264.4148,1.8,12.65,47.84626,-54.09684
2021-01-26 01:09:01+00:00,259.2398,1.8,12.65,47.84626,-54.09684
2021-01-26 01:19:01+00:00,254.3048,1.8,12.57,47.84626,-54.09684
2021-01-26 01:29:01+00:00,250.2264,1.8,12.57,47.84626,-54.09684
2021-01-26 01:39:01+00:00,244.7781,1.8,12.57,47.84626,-54.09684
2021-01-26 01:49:01+00:00,240.6631,1.8,12.57,47.84626,-54.09684
2021-01-26 01:59:01+00:00,238.3948,1.8,12.57,47.84626,-54.09684
2021-01-26 02:09:01+00:00,235.9198,1.8,12.57,47.84626,-54.09684
2021-01-26 02:19:01+00:00,232.2714,1.8,12.57,47.84626,-54.09684
2021-01-26 02:29:01+00:00,230.3548,1.8,12.57,47.84626,-54.09684
2021-01-26 02:39:01+00:00,229.6614,1.8,12.57,47.84626,-54.09684
2021-01-26 02:49:01+00:00,227.5715,1.8,12.57,47.84626,-54.09684
2021-01-26 02:59:01+00:00,227.2581,1.79,12.57,47.84626,-54.09684
2021-01-26 03:09:01+00:00,228.8265,1.7,12.57,47.84626,-54.09684
2021-01-26 03:19:01+00:00,226.2065,1.7,12.57,47.84626,-54.09684
2021-01-26 03:29:01+00:00,222.5881,1.7,12.57,47.84626,-54.09684
2021-01-26 03:39:01+00:00,224.3448,1.7,12.57,47.84626,-54.09684
2021-01-26 03:49:01+00:00,224.8564,1.7,12.57,47.84626,-54.09684
2021-01-26 03:59:01+00:00,223.0565,1.7,12.57,47.84626,-54.09684
2021-01-26 04:09:01+00:00,223.9631,1.7,12.57,47.84626,-54.09684
2021-01-26 04:19:01+00:00,228.5414,1.7,12.57,47.84626,-54.09684
2021-01-26 04:29:01+00:00,232.1281,1.7,12.57,47.84626,-54.09684
2021-01-26 04:39:01+00:00,233.4232,1.7,12.57,47.84626,-54.09684
2021-01-26 04:49:01+00:00,237.9048,1.7,12.57,47.84626,-54.09684
2021-01-26 04:59:01+00:00,244.8864,1.7,12.57,47.84626,-54.09684
2021-01-26 05:09:01+00:00,248.5647,1.7,12.57,47.84626,-54.09684
2021-01-26 05:19:01+00:00,248.3664,1.7,12.49,47.84626,-54.09684
2021-01-26 05:29:01+00:00,251.8014,1.7,12.49,47.84626,-54.09684
2021-01-26 05:39:01+00:00,257.6598,1.69,12.49,47.84626,-54.09684
2021-01-26 05:49:01+00:00,261.5814,1.69,12.49,47.84626,-54.09684
2021-01-26 05:59:01+00:00,263.0714,1.68,12.49,47.84626,-54.09684
2021-01-26 06:09:01+00:00,269.1164,1.66,12.49,47.84626,-54.09684
2021-01-26 06:19:01+00:00,275.0798,1.6,12.49,47.84626,-54.09684
2021-01-26 06:29:01+00:00,277.6314,1.6,12.49,47.84626,-54.09684
2021-01-26 06:39:01+00:00,279.1914,1.61,12.49,47.84626,-54.09684
2021-01-26 06:49:01+00:00,286.5881,1.72,12.49,47.84626,-54.09684
2021-01-26 06:59:01+00:00,293.4847,1.71,12.49,47.84626,-54.09684
2021-01-26 07:09:01+00:00,297.0663,1.79,12.49,47.84626,-54.09684
2021-01-26 07:19:01+00:00,302.7214,1.77,12.49,47.84626,-54.09684
2021-01-26 07:29:01+00:00,309.1213,1.75,12.49,47.84626,-54.09684
2021-01-26 07:39:01+00:00,313.8697,1.79,12.49,47.84626,-54.09684
2021-01-26 07:49:01+00:00,319.4846,1.8,12.49,47.84626,-54.09684
2021-01-26 07:59:01+00:00,327.2847,1.8,12.49,47.84626,-54.09684
2021-01-26 08:09:01+00:00,334.5647,1.8,12.49,47.84626,-54.09684
2021-01-26 08:19:01+00:00,338.7112,1.8,12.49,47.84626,-54.09684
2021-01-26 08:29:01+00:00,345.9295,1.87,12.49,47.84626,-54.09684
2021-01-26 08:39:01+00:00,349.4945,1.89,12.49,47.84626,-54.09684
2021-01-26 08:49:01+00:00,349.4029,1.9,12.49,47.84626,-54.09684
2021-01-26 08:59:01+00:00,351.7513,1.9,12.49,47.84626,-54.09684
2021-01-26 09:09:01+00:00,357.3863,1.9,12.49,47.84626,-54.09684
2021-01-26 09:19:01+00:00,359.1512,1.9,12.49,47.84626,-54.09684
2021-01-26 09:29:01+00:00,357.668,1.9,12.49,47.84626,-54.09684
2021-01-26 09:39:01+00:00,361.403,1.9,12.49,47.84626,-54.09684
2021-01-26 09:49:01+00:00,364.4413,1.9,12.49,47.84626,-54.09684
2021-01-26 09:59:01+00:00,361.7996,1.9,12.49,47.84626,-54.09684
2021-01-26 10:09:01+00:00,360.4729,1.97,12.49,47.84626,-54.09684
2021-01-26 10:19:01+00:00,363.2095,1.99,12.49,47.84626,-54.09684
2021-01-26 10:29:01+00:00,364.3846,1.98,12.49,47.84626,-54.09684
2021-01-26 10:39:01+00:00,359.2963,1.98,12.49,47.84626,-54.09684
2021-01-26 10:49:01+00:00,355.5162,1.98,12.49,47.84626,-54.09684
2021-01-26 10:59:01+00:00,358.293,1.99,12.49,47.84626,-54.09684
2021-01-26 11:09:01+00:00,358.4046,1.99,12.49,47.84626,-54.09684
2021-01-26 11:19:01+00:00,354.0996,2.0,12.49,47.84626,-54.09684
2021-01-26 11:29:01+00:00,351.0714,2.0,12.49,47.84626,-54.09684
2021-01-26 11:39:01+00:00,351.1696,2.0,12.49,47.84626,-54.09684
2021-01-26 11:49:01+00:00,347.0813,2.0,12.49,47.84626,-54.09684
2021-01-26 11:59:01+00:00,339.7263,2.0,12.49,47.84626,-54.09684
2021-01-26 12:09:01+00:00,337.713,2.0,12.49,47.84626,-54.09684
2021-01-26 12:19:01+00:00,336.1179,2.0,12.57,47.84626,-54.09684
2021-01-26 12:29:01+00:00,330.223,2.0,12.57,47.84626,-54.09684
2021-01-26 12:39:01+00:00,324.6247,1.9,12.57,47.84626,-54.09684
2021-01-26 12:49:01+00:00,323.3147,1.9,12.57,47.84626,-54.09684
2021-01-26 12:59:01+00:00,319.733,1.86,12.57,47.84626,-54.09684
2021-01-26 13:09:01+00:00,309.558,1.8,12.57,47.84626,-54.09684
2021-01-26 13:19:01+00:00,303.388,1.8,12.97,47.84626,-54.09684
2021-01-26 13:29:01+00:00,298.5897,1.82,12.97,47.84626,-54.09684
2021-01-26 13:39:01+00:00,291.5364,1.84,12.97,47.84626,-54.09684
2021-01-26 13:49:01+00:00,282.5013,1.86,12.97,47.84626,-54.09684
2021-01-26 13:59:01+00:00,276.4681,1.95,12.97,47.84626,-54.09684
2021-01-26 14:09:01+00:00,269.6947,1.9,12.97,47.84626,-54.09684
2021-01-26 14:19:01+00:00,263.2381,1.9,13.21,47.84626,-54.09684
2021-01-26 14:29:01+00:00,257.4831,1.9,13.21,47.84626,-54.09684
2021-01-26 14:39:01+00:00,252.4764,1.9,13.21,47.84626,-54.09684
2021-01-26 14:49:01+00:00,246.0814,1.92,13.21,47.84626,-54.09684
2021-01-26 14:59:01+00:00,241.5847,1.9,13.21,47.84626,-54.09684
2021-01-26 15:09:01+00:00,238.6647,1.9,13.21,47.84626,-54.09684
2021-01-26 15:19:01+00:00,234.1948,1.92,14.48,47.84626,-54.09684
2021-01-26 15:29:01+00:00,228.4914,1.97,14.48,47.84626,-54.09684
2021-01-26 15:39:01+00:00,224.2248,1.98,14.48,47.84626,-54.09684
2021-01-26 15:49:01+00:00,222.4098,1.99,14.48,47.84626,-54.09684
2021-01-26 15:59:01+00:00,222.2981,2.0,14.48,47.84626,-54.09684
2021-01-26 16:09:01+00:00,222.3381,2.0,14.48,47.84626,-54.09684
2021-01-26 16:19:01+00:00,222.3314,2.0,14.32,47.84626,-54.09684
2021-01-26 16:29:01+00:00,223.0798,2.03,14.32,47.84626,-54.09684
2021-01-26 16:39:01+00:00,222.6064,2.07,14.32,47.84626,-54.09684
2021-01-26 16:49:01+00:00,223.6948,2.09,14.32,47.84626,-54.09684
2021-01-26 16:59:01+00:00,224.0298,2.09,14.32,47.84626,-54.09684
2021-01-26 17:09:01+00:00,225.2198,2.1,14.32,47.84626,-54.09684
2021-01-26 17:19:01+00:00,226.9497,2.1,14.48,47.84626,-54.09684
2021-01-26 17:29:01+00:00,229.1081,2.1,14.48,47.84626,-54.09684
2021-01-26 17:39:01+00:00,230.6764,2.1,14.48,47.84626,-54.09684
2021-01-26 17:49:01+00:00,231.7314,2.12,14.48,47.84626,-54.09684
2021-01-26 17:59:01+00:00,232.7964,2.16,14.48,47.84626,-54.09684
2021-01-26 18:09:01+00:00,234.3648,2.2,14.48,47.84626,-54.09684
2021-01-26 18:19:01+00:00,236.2381,2.2,14.0,47.84626,-54.09684
2021-01-26 18:29:01+00:00,239.2714,2.0,14.0,47.84626,-54.09684
2021-01-26 18:39:01+00:00,241.4898,2.0,14.0,47.84626,-54.09684
2021-01-26 18:49:01+00:00,242.3014,2.0,14.0,47.84626,-54.09684
2021-01-26 18:59:01+00:00,244.2781,2.08,14.0,47.84626,-54.09684
2021-01-26 19:09:01+00:00,248.3298,2.1,14.0,47.84626,-54.09684
2021-01-26 19:19:01+00:00,252.2198,2.1,13.84,47.84626,-54.09684
2021-01-26 19:29:01+00:00,255.9214,2.1,13.84,47.84626,-54.09684
2021-01-26 19:39:01+00:00,262.2564,2.1,13.84,47.84626,-54.09684
2021-01-26 19:49:01+00:00,270.6647,2.1,13.84,47.84626,-54.09684
2021-01-26 19:59:01+00:00,275.4831,2.1,13.84,47.84626,-54.09684
2021-01-26 20:09:01+00:00,279.1647,2.09,13.84,47.84626,-54.09684
2021-01-26 20:19:01+00:00,286.4531,2.16,13.53,47.84626,-54.09684
2021-01-26 20:29:01+00:00,295.308,2.2,13.53,47.84626,-54.09684
2021-01-26 20:39:01+00:00,300.0731,2.2,13.53,47.84626,-54.09684
2021-01-26 20:49:01+00:00,305.0731,2.19,13.53,47.84626,-54.09684
2021-01-26 20:59:01+00:00,312.4063,2.18,13.53,47.84626,-54.09684
2021-01-26 21:09:01+00:00,318.7697,2.19,13.53,47.84626,-54.09684
2021-01-26 21:19:01+00:00,321.673,2.2,13.05,47.84626,-54.09684
2021-01-26 21:29:01+00:00,325.1229,2.2,13.05,47.84626,-54.09684
2021-01-26 21:39:01+00:00,327.2196,2.2,13.05,47.84626,-54.09684
2021-01-26 21:49:01+00:00,328.18300000000005,2.2,13.05,47.84626,-54.09684
2021-01-26 21:59:01+00:00,329.8464,2.2,13.05,47.84626,-54.09684
2021-01-26 22:09:01+00:00,332.2297,2.2,13.05,47.84626,-54.09684
2021-01-26 22:19:01+00:00,333.0148,2.19,12.81,47.84626,-54.09684
2021-01-26 22:29:01+00:00,334.4197,2.19,12.81,47.84626,-54.09684
2021-01-26 22:39:01+00:00,338.4579,2.17,12.81,47.84626,-54.09684
2021-01-26 22:49:01+00:00,338.3913,2.16,12.81,47.84626,-54.09684
2021-01-26 22:59:01+00:00,336.4346,2.15,12.81,47.84626,-54.09684
2021-01-26 23:09:01+00:00,336.8947,2.16,12.81,47.84626,-54.09684
2021-01-26 23:19:01+00:00,338.1947,2.18,12.73,47.84626,-54.09684
2021-01-26 23:29:01+00:00,333.103,2.19,12.73,47.84626,-54.09684
2021-01-26 23:39:01+00:00,326.7814,2.2,12.73,47.84626,-54.09684
2021-01-26 23:49:01+00:00,326.243,2.2,12.73,47.84626,-54.09684
2021-01-26 23:59:01+00:00,323.1796,2.2,12.73,47.84626,-54.09684
